Location: Schommer Observatory
(40.5200°N, 74.4500°W)
Time: 15:19:59
(UTC-04:00)

Vanguard 1 Rocket - All Passes

Search period start: 22 October 2017 00:00
Search period end: 01 November 2017 00:00
Orbit: 655 x 4222 km, 34.3° (Epoch: 21 October)

Date Brightness Start Highest point End Pass type
(mag) Time Alt. Az. Time Alt. Az. Time Alt. Az.
22 Oct - 04:33:22 10° S 04:40:04 15° SSE 04:45:03 10° ESE visible
22 Oct - 06:57:57 10° SW 07:06:22 33° SSE 07:11:33 10° ESE daylight
22 Oct - 09:25:22 10° WSW 09:31:16 44° S 09:35:33 10° ESE daylight
22 Oct - 11:51:50 10° WSW 11:55:27 23° SSW 11:59:09 10° SE daylight
23 Oct - 03:25:51 10° SSE 03:27:56 10° SSE 03:29:51 10° SE visible
23 Oct - 05:45:30 10° SSW 05:55:05 28° SSE 06:00:59 10° ESE visible
23 Oct - 08:13:04 10° WSW 08:20:36 44° S 08:25:20 10° ESE daylight
23 Oct - 10:40:22 10° WSW 10:45:01 34° SSW 10:49:01 10° SE daylight
23 Oct - 13:08:55 10° SSW 13:09:12 10° SSW 13:09:29 10° SSW daylight
24 Oct - 04:33:24 10° SSW 04:43:22 22° SSE 04:49:54 10° ESE visible
24 Oct - 07:00:16 10° SW 07:09:39 41° S 07:15:08 10° E daylight
24 Oct - 09:28:27 10° WSW 09:34:32 44° S 09:38:52 10° ESE daylight
24 Oct - 11:55:34 10° WSW 11:58:37 18° SSW 12:01:40 10° SSE daylight
25 Oct - 03:22:24 10° S 03:31:13 17° SSE 03:37:41 10° ESE visible
25 Oct - 05:47:13 10° SW 05:58:22 35° SSE 06:04:46 10° E visible
25 Oct - 08:15:56 10° WSW 08:23:53 49° S 08:28:45 10° ESE daylight
25 Oct - 10:43:43 10° W 10:48:13 28° SSW 10:52:01 10° SE daylight
26 Oct - 02:15:12 10° SSE 02:18:40 11° SSE 02:21:47 10° SE visible
26 Oct - 04:34:17 10° SSW 04:46:38 30° SSE 04:54:02 10° ESE visible
26 Oct - 07:02:48 10° WSW 07:12:57 48° S 07:18:38 10° E daylight
26 Oct - 09:31:35 10° W 09:37:47 41° SSW 09:42:07 10° ESE daylight
26 Oct - 11:59:51 10° SW 12:01:43 12° SSW 12:03:33 10° S daylight
27 Oct - 03:22:01 10° SSW 03:34:27 23° SSE 03:42:36 10° ESE visible
27 Oct - 05:49:15 10° SW 06:01:37 43° SSE 06:08:22 10° E visible
27 Oct - 08:18:52 10° WSW 08:27:09 50° S 08:32:07 10° ESE daylight
27 Oct - 10:47:10 10° WSW 10:51:21 23° SSW 10:54:52 10° SSE daylight
28 Oct - 02:11:18 10° S 02:21:51 17° SSE 02:29:43 10° ESE visible
28 Oct - 04:35:39 10° SW 04:49:52 37° SSE 04:57:50 10° E visible
28 Oct - 07:05:27 10° WSW 07:16:11 53° S 07:22:03 10° ESE daylight
28 Oct - 09:34:45 10° W 09:40:59 37° SSW 09:45:18 10° SE daylight
29 Oct - 01:06:15 10° SSE 01:08:53 10° SE 01:11:22 10° SE visible
29 Oct - 03:22:30 10° SSW 03:37:38 31° SSE 03:46:47 10° E visible
29 Oct - 05:51:30 10° WSW 06:04:51 51° S 06:11:52 10° E visible
29 Oct - 08:21:50 10° W 08:30:23 50° S 08:35:26 10° ESE daylight
29 Oct - 10:50:50 10° WSW 10:54:23 17° SSW 10:57:25 10° S daylight
30 Oct - 02:10:25 10° SSW 02:24:57 24° SSE 02:34:48 10° ESE visible
30 Oct - 04:37:21 10° SW 04:53:02 45° SSE 05:01:26 10° E visible
30 Oct - 07:08:11 10° WSW 07:19:25 57° S 07:25:27 10° ESE daylight
30 Oct - 09:37:59 10° W 09:44:05 31° SSW 09:48:20 10° SE daylight
31 Oct - 01:00:33 10° S 01:11:56 16° SE 01:20:52 10° ESE visible
31 Oct - 03:23:31 10° SW 03:40:44 38° SSE 03:50:36 10° E visible
31 Oct - 05:53:55 10° WSW 06:08:03 57° S 06:15:18 10° E visible
31 Oct - 08:24:50 10° W 08:33:34 47° SSW 08:38:42 10° ESE daylight
31 Oct - 10:55:01 10° WSW 10:57:18 13° SW 10:59:21 10° S daylight
